Погода в Суре

Поиск расширенной информации на нашем сайте:

Полезная информация:

Новости сайта



02.01.2020
Опубликован Долгосрочный прогноз погоды по городам России и ближнего зарубежья на январь 2020 года.
Карты: Прогноз на январь и февраль 2020 года, Сравнение прогнозируемой аномалии приземной температуры воздуха на январь 2020 года по разным моделям.




Погода в Суре - сегодня

Время (UTC), дата Ветер
(°,м/с) 
Видим.   Явления Облачность Т
(°С)
Тd
(°С)
f(%) Тe
(°С)
Pmin
(гПа)
dP
(гПа)
Po
(мм)
O2
(г/м3)
Тmin Tmax R s Состояние
почвы
00 29.11.20 130 (ЮВ) 20000 м    ясно 
-14.5 -15.9 89 -15  1043.3  0.7  776  332           
03 29.11.20 140 (ЮВ) 20000 м    ясно 
-13.8 -15 91 -16  1043.2  0.1  776  331  -15.3      равномерный
сухой снег
100% 
06 29.11.20 150 (ЮВ) 20000 м    1/0 верхняя 
[Ci fib]
-13.3 -14.5 91 -15  1042.9  -0.3  776  330           
09 29.11.20 120 (ЮВ) 20000 м    1/0 верхняя 
[Ci fib]
-11.8 -13.4 88 -14  1042.6  -0.2  776  328           
12 29.11.20 120 (ЮВ) 20000 м    1/0 верхняя 
[Ci fib]
-10.8 -12.1 90 -13  1042.1  -0.5  775  326           
15 29.11.20 150 (ЮВ) 20000 м    10/10 450 м 
[Sc]
-9.8 -10.9 92 -12  1041.9  -0.1  775  325    -9.8       
18 29.11.20 140 (ЮВ) 10 км  {снег}  10/10 240 м 
[St]
-8.3 -8.9 95 -10  1041.1  -0.8  775  323           
21 29.11.20 130 (ЮВ) 4000 м  снежные зёрна  10/10 270 м 
[St]
-7.2 -7.9 95 -9  1040.1  -0.9  774  321           
00 30.11.20 150 (ЮВ) 10 км  {снег}  10/10 330 м 
[St]
-6.1 -7 93 -9  1039.2  -0.9  773  319           
03 30.11.20 130 (ЮВ) 10 км    10/10 360 м 
[St]
-5.6 -6.6 93 -8  1038.3  -0.9  773  319  -9.8    0.0  равномерный
сухой снег
100% 
06 30.11.20 150 (ЮВ) 4000 м  дымка  10/10 240 м 
[St]
-5.1 -5.7 96 -8  1037.8  -0.5  772  318           
09 30.11.20 160 (Ю) 4000 м  дымка  10/10 210 м 
[St]
-4.1 -4.9 94 -6  1037.2  -0.5  772  316           
12 30.11.20 140 (ЮВ) 4000 м  дымка  10/10 240 м 
[St]
-3.5 -4.4 93 -6  1035.9  -1.3  771  315           
15 30.11.20 140 (ЮВ) 10 км    10/10 300 м 
[St]
-2.6 -3.8 91 -5  1034.2  -1.6  770  314    -2.6       
18 30.11.20 150 (ЮВ) 10 км    10/10 420 м 
[Sc]
-2.1 -3.3 91 -4  1032.3  -1.9  768  312           
21 30.11.20 150 (ЮВ) 10 км    10/10 420 м 
[Sc]
-0.9 -2.2 91 -3  1030.5  -1.7  767  310           
00 01.12.20 170 (Ю) 10 км    10/10 400 м 
[Sc]
-1.1 -2.6 90 -4  1029.2  -1.2  766  310           
03 01.12.20 170 (Ю) 5{10}  20000 м    10/10 400 м 
[Sc]
-2.1 -3.6 89 -5  1028.9  -0.4  766  311  -2.6      равномерный
сухой снег
100% 
06 01.12.20 170 (Ю) 5{10}  20000 м    10/10 330 м 
[St]
-2.3 -3.7 90 -6  1028.3  -0.5  765  311           
09 01.12.20 180 (Ю) 20000 м  {снег}  10/10 360 м 
[St]
-2.3 -3.9 89 -6  1028.1  -0.3  765  311           
12 01.12.20 180 (Ю) 5{10}  4000 м  слаб. снег  10/10 570 м 
[Sc]
-2.8 -4.8 86 -6  1027.5  -0.6  765  312           
15 01.12.20 180 (Ю) 5{10}  4000 м  слаб. снег  10/10 2000 м 
[Ns]
-3.6 -5 90 -7  1027.1  -0.4  764  313    -2.1  0.3     
21 01.12.20 220 (ЮЗ) 20000 м  в посл. час ливневой снег  9/9 480 м кучево-дожд. 
[Cb cap]
-2.4 -4.1 88 -5  1027.7  0.3  765  311           
00 02.12.20 190 (Ю) 5{11}  4000 м  слаб. ливневой снег  10/9 450 м кучево-дожд. 
[Cb cap]
-2.3 -4.1 87 -6  1027.8  0.1  765  311           
03 02.12.20 190 (Ю) 4000 м  слаб. ливневой снег  10/10 500 м кучево-дожд. 
[Cb cap]
-2.6 -4.1 89 -6  1027.3  -0.5  764  311  -3.6    0.4  равномерный
сухой снег
100% 
Время (UTC), дата Ветер
(°,м/с) 
Видим.   Явления Облачность Т
(°С)
Тd
(°С)
f(%) Тe
(°С)
Pmin
(гПа)
dP
(гПа)
Po
(мм)
O2
(г/м3)
Тmin Tmax R s Состояние
почвы

Для получения пояснительной информации подведите курсор к названию столбца.

ПОГОДА в Суре - архив

Всё, что Вы хотите узнать о погоде в Суре - удобно и подробно!

Выберите нужную дату (начиная с 1 января 2019* года) и нажмите кнопку "Найти".
Будут отображены архивные сводки погоды по пункту Сура, начиная с указанной даты.


Отображать данные в формате CSV (для использования в таблицах Excel)


Внимание! Наш архив погоды предназначен исключительно для личного некоммерческого использования в познавательных целях. Если Вам необходимы официальные справки о состоянии погоды (для производственных, юридических, коммерческих и т.п. целей), обращайтесь в органы Росгидромета.

*Примечание: данная дата относится к архиву по метеостанциям СССР (Россия, СНГ, Балтия).
Архив по метеостанциям Зарубежной Европы и Азии (кроме Китая) хранится 10 дней, по другим регионам земного шара (Китай, Африка, Америка, Австралия, Океания) - 1 день.

Сура - район местоположения метеостанции


Название, широта, долгота, высота метеостанции:
Сура 63.6°ш. 45.6°д. 62 м над ур. моря [Российская Федерация]

Дополнительная информация

В oтличие oт бoльшинства пoгoдных сайтoв мы публикуем пoдрoбную метеoинфoрмацию в детальнoм прoфессиoнальнoм фoрмате.

Характеристики температуры и влажнoсти вoздуха измеряются на высoте 2 м в тени вдали oт зданий и деревьев.
Скoрoсть ветра измеряется на высoте 10 м (на урoвне рoста челoвека скoрoсть ветра ниже в 1.5-2 раза). Если метеoстанция нахoдится в гoрoде или в лесу, тo скoрoсть ветра занижена на 2-4 м/с пo сравнению с oткрытым местoм. Скoрoсть ветра над акватoриями крупных рек и oзёр, а также на вершинах хoлмoв на 2-5 м/с выше, чем в oбычных услoвиях.
Атмoсфернoе давление в разных тoчках местнoсти мoжет значительнo oтличаться oт давления на метеoстанции, в зависимoсти oт услoвий рельефа (при пoдъёме на 10 м давление пoнижается примернo на 1 мм рт.ст.).